Location: Rounton
(54.4000°N, 1.3500°W)
Time: 07:19:22
(UTC+00:00)

Vanguard 1 Rocket - Pass Details

Date: 02 December 2021
Orbit: 651 x 4224 km, 34.3° (Epoch: 19 January)

Event Time Altitude Azimuth Distance (km) Brightness Sun altitude
Rises 01:18:43 0° 186° (S) 4,674 - -53.9°
Reaches altitude 10° 01:23:06 10° 166° (SSE) 4,260 - -53.5°
Maximum altitude 01:29:41 16° 132° (SE) 4,545 - -53.0°
Exits shadow 01:30:22 16° 129° (SE) 4,627 10.9 -52.9°
Drops below altitude 10° 01:38:31 10° 102° (ESE) 6,008 11.7 -52.1°
Sets 01:47:03 0° 86° (E) 7,735 12.5 -51.3°
